Weather observations for the past three days for
Oceanside, Camp Pendleton, Marine Corps Air Station
Imperial (Metric)
Date Time (pdt) Wind (mph) Vis. (mi.) Weather Sky Cond. Temperature (ºF) Relative Humidity Wind Chill (°F) Heat Index (°F) Pressure Precipitation (in)
Air Dwpt 6 hour altimeter (in) sea level (mb) 1 hr 3 hr 6 hr
Max. Min.
15 15:55 SW 10 10.00 Fair CLR 79 64 60% 81 29.94 1013.9
15 13:55 SW 7 10.00 Fair CLR 80.1 64 58% 82 29.97 1014.8
15 12:55 SW 9 G 16 10.00 Fair CLR 80.1 64 58% 82 29.99 1015.6
15 11:55 Vrbl 6 10.00 Fair CLR 80.1 64.9 60% 82 30.01 1016.2
15 10:55 S 8 10.00 Partly Cloudy SCT012 77 64 77 69.1 64% 79 30.03 1016.8
15 09:55 S 5 10.00 Overcast OVC011 72 64 76% 30.05 1017.6
15 08:55 S 5 10.00 Overcast OVC009 71.1 63 76% 30.06 1017.9
15 07:55 SW 3 10.00 Overcast OVC009 70 64 82% 30.06 1017.8
15 06:55 Calm 9.00 Overcast OVC008 70 64 82% 30.06 1017.7
15 05:55 Calm 10.00 Overcast OVC008 70 64 82% 30.04 1017.0
14 21:55 Calm 10.00 Fair CLR 69.1 63 81% 30.02 1016.5
14 20:55 Calm 10.00 Fair CLR 70 63 79% 30.01 1016.0
14 13:55 SW 9 G 18 10.00 Fair CLR 78.1 64.9 64% 80 30.02 1016.4
14 11:55 SW 9 10.00 Fair CLR 79 64.9 62% 81 30.03 1016.8
14 10:55 SW 3 10.00 Fair CLR 78.1 64.9 78.1 62.1 64% 80 30.04 1017.3
14 09:55 N 5 10.00 Overcast OVC013 73.9 64 71% 30.06 1017.9
14 02:55 Calm 10.00 Fair CLR 64.9 59 81% 29.98 1015.2
13 23:55 W 3 10.00 Fair CLR 66 60.1 81% 29.99 1015.6
13 22:55 Calm 10.00 Fair CLR 66 60.1 75.9 66 81% 29.99 1015.3
13 21:55 NE 3 10.00 Fair CLR 68 61 78% 29.98 1015.2
13 20:55 SW 3 10.00 Fair CLR 69.1 61 76% 29.97 1014.6
13 17:55 SW 8 10.00 Fair CLR 75 63 66% 77 29.95 1014.0
13 15:55 SW 7 10.00 Fair CLR 75.9 63 64% 78 29.95 1014.2
13 14:55 Calm 10.00 NULL NULL 80.1 64 58% 82 29.96 1014.4
13 04:55 Calm 10.00 Overcast OVC007 68 63 69.1 66.9 84% 29.92 1013.0
13 03:55 Calm 10.00 Overcast OVC008 68 63 84% 29.89 1012.2
12 21:55 Calm 9.00 Fair CLR 66.9 62.1 84% 29.88 1011.7
12 17:55 Vrbl 7 10.00 Fair CLR 73.9 64 71% 29.84 0.0
Date Time (pdt) Wind (mph) Vis. (mi.) Weather Sky Cond. Air Dwpt Max. Min. Relative Humidity Wind Chill (°F) Heat Index (°F) altimeter (in) sea level (mb) 1 hr 3 hr 6 hr
6 hour
Temperature (ºF) Pressure Precipitation (in)